TimeAEST,TemperatureF,Dew PointF,Humidity,Sea Level PressureIn,VisibilityMPH,Wind Direction,Wind SpeedMPH,Gust SpeedMPH,PrecipitationIn,Events,Conditions,WindDirDegrees,DateUTC
12:00 AM,56,41,46,29.90,19,Calm,Calm,,,,Partly Cloudy,,2013-08-19 14:00:00
12:00 AM,57.2,41.0,55,29.89,-9999.0,Calm,Calm,-,N/A,,Clear,0,2013-08-19 14:00:00
12:30 AM,53.6,44.6,72,29.89,-9999.0,Calm,Calm,-,N/A,,Clear,0,2013-08-19 14:30:00
1:00 AM,55,40,46,29.89,,Calm,Calm,,,,,,2013-08-19 15:00:00
1:00 AM,55.4,41.0,58,29.89,-9999.0,Calm,Calm,-,N/A,,Clear,0,2013-08-19 15:00:00
1:30 AM,55.4,39.2,54,29.86,-9999.0,SSW,4.6,-,N/A,,Clear,210,2013-08-19 15:30:00
2:00 AM,53.6,39.2,58,29.86,-9999.0,WSW,2.3,-,N/A,,Clear,240,2013-08-19 16:00:00
2:30 AM,53.6,39.2,58,29.86,-9999.0,Calm,Calm,-,N/A,,Clear,0,2013-08-19 16:30:00
3:00 AM,55.4,37.4,51,29.83,-9999.0,North,4.6,-,N/A,,Clear,360,2013-08-19 17:00:00
3:30 AM,57.2,37.4,48,29.86,-9999.0,Calm,Calm,-,N/A,,Clear,0,2013-08-19 17:30:00
4:00 AM,55.4,39.2,54,29.83,-9999.0,WNW,8.1,-,N/A,,Clear,300,2013-08-19 18:00:00
4:30 AM,55.4,37.4,51,29.86,-9999.0,West,6.9,-,N/A,,Clear,280,2013-08-19 18:30:00
5:00 AM,53.6,39.2,58,29.86,-9999.0,West,5.8,-,N/A,,Clear,260,2013-08-19 19:00:00
5:30 AM,55.4,39.2,54,29.86,-9999.0,SSW,1.2,-,N/A,,Clear,210,2013-08-19 19:30:00
6:00 AM,51.8,41.0,67,29.86,-9999.0,South,4.6,-,N/A,,Clear,190,2013-08-19 20:00:00
6:30 AM,51.8,42.8,71,29.89,-9999.0,South,3.5,-,N/A,,Clear,190,2013-08-19 20:30:00
7:00 AM,52,46,71,29.91,,Calm,Calm,,,,,,2013-08-19 21:00:00
7:00 AM,51.8,46.4,82,29.89,-9999.0,Calm,Calm,-,N/A,,Clear,0,2013-08-19 21:00:00
7:30 AM,57.2,44.6,63,29.92,-9999.0,Calm,Calm,-,N/A,,Clear,0,2013-08-19 21:30:00
8:00 AM,62.6,39.2,42,29.92,-9999.0,SW,3.5,-,N/A,,Clear,220,2013-08-19 22:00:00
8:30 AM,64.4,39.2,40,29.92,-9999.0,SW,10.4,-,N/A,,Clear,230,2013-08-19 22:30:00
9:00 AM,66.2,37.4,35,29.92,-9999.0,WSW,11.5,-,N/A,,Clear,240,2013-08-19 23:00:00
9:30 AM,66.2,37.4,35,29.92,-9999.0,WSW,11.5,-,N/A,,Clear,250,2013-08-19 23:30:00
10:00 AM,68,39,23,29.94,,WSW,12.7,,,,,250,2013-08-20 00:00:00
10:00 AM,68.0,39.2,35,29.92,6.2,WSW,12.7,-,N/A,,Partly Cloudy,250,2013-08-20 00:00:00
10:30 AM,68.0,37.4,33,29.92,6.2,West,10.4,-,N/A,,Partly Cloudy,260,2013-08-20 00:30:00
11:00 AM,69.8,39.2,33,29.92,6.2,SW,16.1,-,N/A,,Partly Cloudy,230,2013-08-20 01:00:00
11:30 AM,69.8,32.0,25,29.89,6.2,WSW,17.3,-,N/A,,Partly Cloudy,240,2013-08-20 01:30:00
11:49 AM,69.8,33.8,27,29.89,6.2,West,23.0,-,N/A,,Partly Cloudy,270,2013-08-20 01:49:00
12:00 PM,70,33,15,29.90,25,West,21.9,,,,Partly Cloudy,270,2013-08-20 02:00:00
12:00 PM,69.8,32.0,25,29.89,6.2,West,21.9,-,N/A,,Partly Cloudy,270,2013-08-20 02:00:00
12:19 PM,69.8,32.0,25,29.89,6.2,West,19.6,31.1,N/A,,Partly Cloudy,260,2013-08-20 02:19:00
12:30 PM,69.8,32.0,25,29.86,6.2,West,21.9,-,N/A,,Partly Cloudy,270,2013-08-20 02:30:00
1:00 PM,70,31,14,29.88,,West,21.9,,,,,260,2013-08-20 03:00:00
1:00 PM,69.8,32.0,25,29.86,6.2,West,21.9,-,N/A,,Partly Cloudy,260,2013-08-20 03:00:00
1:21 PM,69.8,26.6,20,29.86,6.2,SW,28.8,-,N/A,,Partly Cloudy,230,2013-08-20 03:21:00
1:33 PM,69.8,26.6,20,29.86,6.2,West,19.6,-,N/A,,Partly Cloudy,270,2013-08-20 03:33:00
1:40 PM,69.8,24.8,18,29.86,6.2,West,19.6,31.1,N/A,,Partly Cloudy,260,2013-08-20 03:40:00
2:00 PM,69.8,21.2,16,29.86,6.2,West,24.2,-,N/A,,Partly Cloudy,260,2013-08-20 04:00:00
2:30 PM,69.8,23.0,17,29.86,6.2,WSW,19.6,-,N/A,,Partly Cloudy,250,2013-08-20 04:30:00
3:00 PM,68,19,7,29.87,25,WSW,21.9,,,,Partly Cloudy,250,2013-08-20 05:00:00
3:00 PM,68.0,19.4,16,29.86,-9999.0,WSW,21.9,-,N/A,,Clear,250,2013-08-20 05:00:00
3:30 PM,68.0,19.4,16,29.86,-9999.0,West,19.6,-,N/A,,Clear,260,2013-08-20 05:30:00
4:00 PM,68,20,8,29.88,,West,19.6,,,,,260,2013-08-20 06:00:00
4:00 PM,68.0,19.4,16,29.86,-9999.0,West,19.6,-,N/A,,Clear,260,2013-08-20 06:00:00
4:30 PM,66.2,17.6,15,29.86,-9999.0,West,17.3,-,N/A,,Clear,270,2013-08-20 06:30:00
5:00 PM,64.4,17.6,16,29.89,-9999.0,West,16.1,-,N/A,,Clear,270,2013-08-20 07:00:00
5:30 PM,62.6,19.4,19,29.89,-9999.0,West,12.7,-,N/A,,Clear,260,2013-08-20 07:30:00
6:00 PM,61,21,11,29.92,19,West,12.7,,,,Partly Cloudy,260,2013-08-20 08:00:00
6:00 PM,60.8,21.2,22,29.92,-9999.0,West,12.7,-,N/A,,Clear,260,2013-08-20 08:00:00
6:30 PM,59.0,21.2,23,29.92,-9999.0,WSW,11.5,-,N/A,,Clear,240,2013-08-20 08:30:00
7:00 PM,58,23,15,29.95,,SW,9.2,,,,,230,2013-08-20 09:00:00
7:00 PM,57.2,23.0,27,29.95,-9999.0,SW,9.2,-,N/A,,Clear,230,2013-08-20 09:00:00
7:30 PM,57.2,21.2,25,29.95,-9999.0,WSW,12.7,-,N/A,,Clear,250,2013-08-20 09:30:00
8:00 PM,57.2,23.0,27,29.98,-9999.0,WSW,11.5,-,N/A,,Clear,250,2013-08-20 10:00:00
8:30 PM,55.4,23.0,29,29.98,-9999.0,WSW,13.8,-,N/A,,Clear,240,2013-08-20 10:30:00
9:00 PM,55,23,18,29.99,19,WSW,15.0,,,,Partly Cloudy,240,2013-08-20 11:00:00
9:00 PM,55.4,23.0,29,29.98,-9999.0,WSW,15.0,-,N/A,,Clear,240,2013-08-20 11:00:00
9:30 PM,55.4,24.8,31,29.98,-9999.0,WSW,11.5,-,N/A,,Clear,240,2013-08-20 11:30:00
10:00 PM,54,24,19,30.00,,WSW,11.5,,,,,240,2013-08-20 12:00:00
10:00 PM,55.4,24.8,31,29.98,-9999.0,WSW,11.5,-,N/A,,Clear,240,2013-08-20 12:00:00
10:30 PM,53.6,26.6,35,30.01,-9999.0,WSW,11.5,-,N/A,,Clear,250,2013-08-20 12:30:00
11:00 PM,53.6,24.8,33,30.01,-9999.0,WSW,11.5,-,N/A,,Clear,240,2013-08-20 13:00:00
11:30 PM,53.6,24.8,33,30.01,-9999.0,WSW,13.8,-,N/A,,Clear,240,2013-08-20 13:30:00